#datint,netname,site,siteID,timestamp,IntT,BattV,AirT2,AirT,AirT_Avg,AirT_Max,AirT_Min,RH_Avg,RH_Max,RH_Min,EA_Avg,Td_Avg,Td_Max,Td_Min,WindS_Smp,WindS_Avg,WindD_Avg,WindD_SD,WindS_Max,ETo,ETr,SoilT4,SoilT8,SoilVWC8,SolarW_Avg,wetstate_Avg,wetT_Avg,Precip_accum,Precip_WPG,Precip_TB
15min,AgWx,beryljct,423,31JUL2018:01:00:00,68.3,12.92,66.9,67.2,66.7,68.3,65.5,55,61,48,1.207,50.1,52.0,48.0,2.28,2.1,316,2.7,3.6,0.00026,0.00040,77.7,78.7,17,0,0,65.0,15.87,0.00,0.00
15min,AgWx,beryljct,423,31JUL2018:01:15:00,67.9,12.91,66.1,67.1,66.1,67.4,65.2,59,64,53,1.272,51.5,52.9,49.7,2.192,3.0,308,4.5,4.1,0.00030,0.00044,77.6,78.7,17,0,0,64.8,15.87,0.00,0.00
15min,AgWx,beryljct,423,31JUL2018:01:30:00,67.3,12.91,67.0,69.3,66.7,69.3,65.0,58,66,47,1.172,51.4,53.7,48.2,0,1.5,301,0.1,2.7,0.00018,0.00029,77.3,78.0,17,0,0,64.2,15.87,0.00,0.00
15min,AgWx,beryljct,423,31JUL2018:01:45:00,66.8,12.9,65.5,64.5,65.9,69.2,64.0,62,70,50,1.392,52.5,54.2,50.0,0.46,0.3,301,0.0,1.5,0.00004,0.00006,77.1,78.0,17,0,0,63.0,15.87,0.00,0.00
15min,AgWx,beryljct,423,31JUL2018:02:00:00,66.1,12.91,67.4,67.6,66.8,69.9,64.2,56,70,44,1.176,50.4,54.3,47.0,0.899,0.7,301,0.0,1.1,0.00010,0.00017,77.0,77.9,17,0,0,62.6,15.87,0.00,0.00
15min,AgWx,beryljct,423,31JUL2018:02:15:00,65.7,12.9,67.9,69.4,67.6,69.4,65.4,51,60,45,1.121,48.9,51.4,47.0,0,0.9,300,0.1,1.4,0.00014,0.00022,76.7,78.3,17,0,0,64.3,15.87,0.00,0.00
15min,AgWx,beryljct,423,31JUL2018:02:30:00,65.2,12.9,64.1,61.6,64.9,69.9,61.6,61,70,45,1.308,50.8,52.6,47.4,3.113,2.2,214,22,5.3,0.00023,0.00035,76.5,78.2,17,0,0,63.0,15.87,0.00,0.00
15min,AgWx,beryljct,423,31JUL2018:02:45:00,64.2,12.9,60.7,60.0,60.8,61.9,60.0,68,71,65,1.207,50.2,51.6,49.1,3.902,3.3,201,5.4,4.5,0.00023,0.00033,76.4,78.1,17,0,0,59.5,15.87,0.00,0.00
15min,AgWx,beryljct,423,31JUL2018:03:00:00,63.7,12.9,63.9,65.0,63.2,65.0,60.2,61,68,57,1.194,49.5,50.7,47.8,3.902,5.2,183,6.2,6.8,0.00039,0.00054,76.1,78.0,17,0,0,61.3,15.87,0.00,0.00
15min,AgWx,beryljct,423,31JUL2018:03:15:00,63.7,12.88,67.5,68.7,66.9,68.9,63.4,51,63,45,1.092,47.8,50.6,46.3,1.03,2.8,180,1.6,4.7,0.00035,0.00053,75.9,77.9,17,0,0,63.4,15.87,0.00,0.00
15min,AgWx,beryljct,423,31JUL2018:03:30:00,63.8,12.89,63.6,62.4,64.2,68.6,62.0,60,66,46,1.205,49.9,51.6,46.7,2.938,2.5,145,39,5.9,0.00025,0.00038,75.7,77.3,17,0,0,62.1,15.87,0.00,0.00
15min,AgWx,beryljct,423,31JUL2018:03:45:00,63.3,12.89,61.4,60.4,61.5,63.3,59.4,64,70,59,1.137,49.0,50.2,48.0,4.209,2.4,345,34,4.6,0.00021,0.00032,75.5,77.7,17,0,0,59.8,15.87,0.00,0.00
15min,AgWx,beryljct,423,31JUL2018:04:00:00,62.5,12.88,60.0,60.2,59.9,60.5,59.2,66,70,64,1.174,48.7,49.6,48.0,3.003,3.0,330,12,5.0,0.00023,0.00033,75.3,77.1,17,0,0,58.3,15.87,0.00,0.00
15min,AgWx,beryljct,423,31JUL2018:04:15:00,61.6,12.88,58.0,57.9,58.2,60.2,57.4,73,77,66,1.164,49.5,50.3,48.6,2.521,0.9,345,17,3.1,0.00007,0.00011,75.0,77.5,17,0,0,56.4,15.87,0.00,0.00
15min,AgWx,beryljct,423,31JUL2018:04:30:00,60.7,12.88,58.3,58.3,58.1,58.6,57.6,74,77,70,1.237,49.9,50.6,48.6,2.28,1.6,301,0.9,2.7,0.00011,0.00016,74.8,77.4,17,0,0,56.2,15.87,0.00,0.00
15min,AgWx,beryljct,423,31JUL2018:04:45:00,60.0,12.88,58.8,58.6,58.6,59.2,57.6,72,76,69,1.205,49.6,50.3,48.7,3.508,1.8,311,4.3,3.5,0.00013,0.00019,74.6,76.3,17,0,0,56.3,15.87,0.00,0.00
15min,AgWx,beryljct,423,31JUL2018:05:00:00,59.6,12.88,59.1,60.0,58.7,60.0,57.9,74,77,69,1.221,50.3,51.0,49.7,1.074,1.4,287,2.1,3.6,0.00010,0.00015,74.4,77.2,17,0,0,56.5,15.87,0.00,0.00
15min,AgWx,beryljct,423,31JUL2018:05:15:00,59.3,12.87,59.1,58.4,59.1,60.0,58.1,73,77,68,1.264,50.5,51.2,49.4,0.548,1.1,287,0.2,2.1,0.00008,0.00013,74.2,77.0,17,0,0,56.3,15.87,0.00,0.00
15min,AgWx,beryljct,423,31JUL2018:05:30:00,59.1,12.87,59.7,59.3,59.5,61.0,58.5,72,76,65,1.257,50.6,51.3,49.2,0.153,0.4,287,0.2,1.4,0.00004,0.00006,74.0,77.0,17,0,0,57.0,15.87,0.00,0.00
15min,AgWx,beryljct,423,31JUL2018:05:45:00,58.8,12.87,57.5,56.3,57.7,59.3,56.3,74,81,69,1.175,49.6,51.9,48.4,0.877,1.1,153,40,4.5,0.00007,0.00012,73.8,76.8,17,0,0,55.3,15.87,0.00,0.00
15min,AgWx,beryljct,423,31JUL2018:06:00:00,58.3,12.86,56.6,55.8,56.5,57.6,55.8,74,77,69,1.171,48.2,48.8,47.3,0,1.5,146,1.1,2.6,0.00012,0.00021,73.5,76.7,17,0,0,54.3,15.87,0.00,0.00
15min,AgWx,beryljct,423,31JUL2018:06:15:00,57.7,12.87,55.5,54.9,55.4,56.5,54.9,79,83,75,1.189,49.0,50.1,48.4,0.614,1.5,147,0.6,3.8,0.00009,0.00016,73.3,76.6,17,0,0,53.5,15.87,0.00,0.00
15min,AgWx,beryljct,423,31JUL2018:06:30:00,57.2,12.87,54.5,54.1,54.4,54.9,54.1,82,84,78,1.166,48.9,49.8,48.0,1.469,1.1,148,1.3,2.7,0.00006,0.00010,73.2,76.5,17,1,0,52.6,15.87,0.00,0.00
15min,AgWx,beryljct,423,31JUL2018:06:45:00,56.6,12.87,54.7,55.1,54.4,55.3,53.4,80,84,75,1.118,48.3,48.8,47.5,3.244,1.5,155,9.4,3.9,0.00011,0.00018,72.9,76.4,17,4,0,52.4,15.87,0.00,0.00
15min,AgWx,beryljct,423,31JUL2018:07:00:00,56.4,12.88,55.2,54.8,55.1,55.5,54.5,77,82,75,1.200,48.1,49.4,47.5,2.784,2.0,171,1.2,3.3,0.00022,0.00032,72.8,76.3,17,15,0,54.3,15.87,0.00,0.00
15min,AgWx,beryljct,423,31JUL2018:07:15:00,56.4,12.9,56.3,57.1,55.8,57.1,54.9,78,82,75,1.190,49.2,49.6,48.9,1.798,2.2,171,1.1,3.6,0.00037,0.00048,72.5,76.1,17,39,0,57.6,15.88,0.00,0.00
15min,AgWx,beryljct,423,31JUL2018:07:30:00,57.0,12.92,57.7,57.5,57.5,58.1,57.0,77,82,73,1.306,50.3,52.1,49.1,0.219,1.1,177,19,2.4,0.00052,0.00061,72.4,76.0,17,72,0,63.3,15.87,0.00,0.00
15min,AgWx,beryljct,423,31JUL2018:07:45:00,58.2,12.9,59.0,59.0,58.7,59.7,57.5,76,81,69,1.369,51.1,53.0,49.3,0.745,0.9,245,0.1,2.3,0.00070,0.00079,72.2,75.9,17,108,0,68.0,15.87,0.00,0.00
15min,AgWx,beryljct,423,31JUL2018:08:00:00,59.7,12.94,60.4,60.5,60.1,60.8,59.0,80,84,76,1.380,54.0,55.7,52.7,0,0.1,245,0.0,0.9,0.00089,0.00096,72.0,75.8,17,148,0,75.1,15.87,0.00,0.00
15min,AgWx,beryljct,423,31JUL2018:08:15:00,61.5,12.97,61.6,61.6,61.4,61.9,60.7,79,83,74,1.506,54.9,56.0,53.4,0,0.2,241,3.1,0.8,0.00116,0.00125,71.8,75.6,17,192,0,80.0,15.87,0.00,0.00
15min,AgWx,beryljct,423,31JUL2018:08:30:00,63.3,13.01,61.7,62.3,61.6,62.3,60.9,78,82,74,1.504,54.5,56.2,53.1,3.003,0.6,168,18,3.2,0.00145,0.00157,71.7,75.5,17,239,0,82.1,15.87,0.00,0.00
15min,AgWx,beryljct,423,31JUL2018:08:45:00,65.1,13.08,63.8,64.7,63.5,64.7,62.3,74,80,69,1.452,55.2,56.5,53.6,0.504,1.0,156,0.1,3.2,0.00180,0.00198,71.6,75.4,17,290,0,86.0,15.87,0.00,0.00
15min,AgWx,beryljct,423,31JUL2018:09:00:00,67.2,13.19,66.2,67.0,66.0,67.0,64.7,66,72,63,1.498,54.5,56.0,53.3,0.132,0.3,158,0.9,1.4,0.00215,0.00232,71.6,75.3,16,342,0,92.4,15.87,0.00,0.00
15min,AgWx,beryljct,423,31JUL2018:09:15:00,69.7,13.36,68.7,69.2,68.5,69.8,67.0,63,68,59,1.499,55.5,57.3,53.4,0.438,0.5,158,0.6,1.5,0.00254,0.00274,71.5,75.2,16,393,0,100.6,15.86,0.00,0.00
15min,AgWx,beryljct,423,31JUL2018:09:30:00,72.5,13.49,70.3,71.6,70.1,71.7,69.1,61,65,56,1.481,55.9,57.8,54.4,0.46,0.4,157,0.3,1.2,0.00295,0.00318,71.5,75.1,16,448,0,104.0,15.86,0.00,0.00
15min,AgWx,beryljct,423,31JUL2018:09:45:00,74.8,13.68,73.5,74.7,73.3,74.7,71.6,56,59,48,1.605,56.6,58.6,53.5,0.504,0.1,158,0.9,1.1,0.00314,0.00336,71.6,75.0,16,467,0,104.9,15.86,0.00,0.00
15min,AgWx,beryljct,423,31JUL2018:10:00:00,77.6,13.82,76.7,78.1,76.5,78.1,74.7,46,58,38,1.267,54.0,59.8,50.7,0.438,1.6,61,44,3.4,0.00390,0.00437,71.7,74.9,16,550,0,107.4,15.85,0.00,0.00
15min,AgWx,beryljct,423,31JUL2018:10:15:00,80.0,13.81,78.4,79.2,78.4,79.2,78.1,39,42,37,1.413,51.6,53.9,50.1,0,0.2,45,0.0,1.7,0.00344,0.00371,71.8,74.8,16,486,0,109.4,15.85,0.00,0.00
15min,AgWx,beryljct,423,31JUL2018:10:30:00,81.7,13.93,78.6,78.7,78.8,79.7,78.4,44,50,38,1.592,54.7,58.2,51.3,0.965,0.4,47,1.6,1.6,0.00353,0.00382,72.0,74.7,16,492,0,110.6,15.84,0.00,0.00
15min,AgWx,beryljct,423,31JUL2018:10:45:00,82.8,13.91,79.4,80.4,79.4,80.4,78.7,43,50,39,1.648,55.2,58.6,52.3,2.609,1.9,88,19,3.8,0.00437,0.00492,72.3,74.6,16,588,0,108.9,15.84,0.00,0.00
15min,AgWx,beryljct,423,31JUL2018:11:00:00,84.2,13.9,81.1,82.0,81.2,82.1,80.4,41,48,35,1.497,55.2,59.0,51.5,3.573,2.4,102,20,3.8,0.00511,0.00580,72.6,74.6,16,680,0,114.0,15.84,0.00,0.00
15min,AgWx,beryljct,423,31JUL2018:11:15:00,86.0,13.89,83.3,83.2,83.5,84.4,82.1,38,44,31,1.458,54.9,59.5,50.7,4.231,1.8,152,37,5.2,0.00547,0.00612,72.9,74.5,16,729,0,118.7,15.84,0.00,0.00
15min,AgWx,beryljct,423,31JUL2018:11:30:00,87.5,13.78,84.8,86.5,84.8,86.6,83.2,37,45,26,1.355,55.1,61.4,47.6,1.841,2.0,223,46,4.5,0.00569,0.00639,73.3,74.5,16,746,0,118.9,15.84,0.00,0.00
15min,AgWx,beryljct,423,31JUL2018:11:45:00,89.1,13.86,86.2,87.5,86.4,87.7,85.6,34,43,25,1.537,54.4,61.1,47.2,1.513,2.0,238,20,4.4,0.00615,0.00691,73.8,74.5,16,802,0,122.0,15.83,0.00,0.00
15min,AgWx,beryljct,423,31JUL2018:12:00:00,90.7,13.76,86.7,86.7,87.1,87.9,86.4,30,41,25,1.389,52.2,59.9,46.7,2.959,2.3,250,20,6.0,0.00643,0.00727,74.3,74.5,16,832,0,124.8,15.83,0.00,0.00
15min,AgWx,beryljct,423,31JUL2018:12:15:00,91.4,13.73,87.2,88.6,87.4,88.8,86.2,28,41,22,1.150,50.2,60.6,44.9,0,2.6,267,33,7.6,0.00667,0.00761,74.8,74.5,16,855,0,120.0,15.83,0.00,0.00
15min,AgWx,beryljct,423,31JUL2018:12:30:00,92.7,13.69,88.2,88.5,88.6,89.3,88.2,24,30,21,1.094,47.3,53.1,44.0,0,1.1,194,38,3.2,0.00656,0.00722,75.4,74.6,16,874,0,129.7,15.83,0.00,0.00
15min,AgWx,beryljct,423,31JUL2018:12:45:00,93.9,13.7,89.0,88.9,89.3,90.0,88.5,23,29,21,1.072,47.0,53.3,44.3,1.096,1.0,95,95,3.3,0.00668,0.00733,76.0,74.6,16,890,0,128.8,15.83,0.00,0.00
15min,AgWx,beryljct,423,31JUL2018:13:00:00,95.1,13.28,89.6,89.7,89.9,91.6,88.9,22,29,18,0.939,46.0,53.1,40.8,2.696,1.8,125,57,4.0,0.00692,0.00774,76.7,74.7,16,902,0,129.6,15.83,0.00,0.00
15min,AgWx,beryljct,423,31JUL2018:13:15:00,95.8,13.24,89.4,89.8,89.8,89.9,89.7,21,28,17,1.259,44.7,52.2,39.0,4.253,2.6,122,12,4.3,0.00716,0.00817,77.3,74.8,16,918,0,127.9,15.83,0.00,0.00
15min,AgWx,beryljct,423,31JUL2018:13:30:00,96.3,13.21,90.3,90.5,90.7,91.8,89.8,22,29,19,0.965,46.8,53.2,42.4,2.433,1.8,130,30,4.9,0.00709,0.00794,78.0,74.9,16,923,0,128.1,15.83,0.00,0.00
15min,AgWx,beryljct,423,31JUL2018:13:45:00,96.6,13.23,90.6,90.9,91.0,92.0,90.3,23,31,18,1.097,47.9,56.1,42.3,4.275,3.3,155,31,6.6,0.00739,0.00854,78.7,75.0,16,928,0,124.8,15.83,0.00,0.00
15min,AgWx,beryljct,423,31JUL2018:14:00:00,96.6,13.3,90.2,90.7,90.5,90.8,90.3,24,29,20,1.067,48.6,54.3,43.6,3.573,3.8,109,26,6.8,0.00743,0.00868,79.4,75.2,16,927,0,119.9,15.83,0.00,0.00
15min,AgWx,beryljct,423,31JUL2018:14:15:00,96.7,13.31,90.6,90.7,91.0,91.5,90.6,24,31,18,1.395,49.4,56.0,42.3,6.248,3.7,133,28,8.2,0.00741,0.00864,80.2,75.4,16,925,0,122.3,15.83,0.00,0.00
15min,AgWx,beryljct,423,31JUL2018:14:30:00,96.7,13.24,90.6,91.0,90.9,91.3,90.6,24,33,19,1.236,48.6,58.0,42.6,4.56,4.4,120,20,6.9,0.00741,0.00877,80.9,75.6,16,910,0,117.1,15.83,0.00,0.00
15min,AgWx,beryljct,423,31JUL2018:14:45:00,96.7,13.28,90.8,91.2,91.1,91.9,90.8,25,32,20,1.220,50.6,56.9,44.2,6.577,3.8,100,14,7.1,0.00722,0.00845,81.6,75.8,16,898,0,118.5,15.83,0.00,0.00
15min,AgWx,beryljct,423,31JUL2018:15:00:00,97.0,13.22,91.3,92.0,91.5,92.5,91.0,24,30,20,1.341,49.2,55.5,44.6,4.494,4.2,148,32,10.0,0.00727,0.00859,82.3,76.0,16,892,0,117.5,15.83,0.00,0.00
15min,AgWx,beryljct,423,31JUL2018:15:15:00,97.7,13.18,92.1,91.8,92.5,93.7,91.7,22,29,18,1.237,48.4,55.4,42.6,3.88,3.2,149,63,6.6,0.00699,0.00812,82.9,75.7,16,876,0,119.8,15.83,0.00,0.00
15min,AgWx,beryljct,423,31JUL2018:15:30:00,98.0,13.15,91.8,92.5,92.1,92.6,91.8,21,29,15,0.947,46.5,54.8,38.7,2.565,3.9,101,16,8.8,0.00695,0.00822,83.5,76.4,16,856,0,116.7,15.83,0.00,0.00
15min,AgWx,beryljct,423,31JUL2018:15:45:00,99.2,13.12,93.7,94.9,93.9,94.9,92.5,14,19,11,0.724,36.6,44.8,31.3,1.096,0.8,78,62,3.4,0.00607,0.00668,83.9,76.7,16,836,0,124.1,15.83,0.00,0.00
15min,AgWx,beryljct,423,31JUL2018:16:00:00,100.1,13.11,92.5,91.5,93.2,95.2,91.5,17,26,13,1.301,41.9,52.5,35.8,10.92,3.5,143,51,10.9,0.00515,0.00625,84.1,76.9,16,613,0,116.7,15.83,0.00,0.00
15min,AgWx,beryljct,423,31JUL2018:16:15:00,97.5,13.25,88.3,88.1,88.8,91.2,87.8,27,31,23,1.314,50.3,53.6,47.6,6.927,9.8,181,11,15.2,0.00397,0.00593,84.3,77.1,16,226,0,94.3,15.83,0.00,0.00
15min,AgWx,beryljct,423,31JUL2018:16:30:00,94.2,13.27,86.9,86.0,87.2,88.5,85.6,28,32,24,1.251,50.3,53.4,46.3,5.656,8.0,193,10,12.5,0.00329,0.00489,84.4,77.4,16,189,0,91.8,15.84,0.01,0.00
15min,AgWx,beryljct,423,31JUL2018:16:45:00,92.0,13.29,87.9,87.7,87.8,88.5,86.2,26,30,23,1.306,48.5,51.8,45.6,4.056,6.6,183,8.8,9.3,0.00295,0.00435,84.4,77.6,16,170,0,91.7,15.84,0.00,0.00
15min,AgWx,beryljct,423,31JUL2018:17:00:00,90.5,13.26,86.8,85.8,87.1,88.0,85.8,29,34,25,1.303,51.0,55.4,47.4,6.927,4.9,178,15,7.4,0.00226,0.00329,84.4,77.8,16,131,0,90.4,15.84,0.00,0.00
15min,AgWx,beryljct,423,31JUL2018:17:15:00,89.0,13.25,85.1,84.5,85.3,86.3,84.3,31,37,27,1.294,51.4,55.6,48.0,6.555,5.4,152,5.6,8.0,0.00212,0.00318,84.3,78.0,16,106,0,87.6,15.84,0.00,0.00
15min,AgWx,beryljct,423,31JUL2018:17:30:00,87.6,13.19,85.3,85.8,85.3,86.0,84.6,29,32,26,1.126,49.3,51.3,47.0,2.872,5.5,165,8.2,7.6,0.00192,0.00301,84.3,78.2,16,71,0,86.2,15.84,0.00,0.00
15min,AgWx,beryljct,423,31JUL2018:17:45:00,86.7,13.19,85.0,84.5,85.2,86.6,83.6,30,37,25,1.287,50.4,55.1,45.8,5.787,3.8,278,52,6.2,0.00137,0.00213,84.2,77.9,16,53,0,85.5,15.85,0.00,0.00
15min,AgWx,beryljct,423,31JUL2018:18:00:00,86.0,13.17,86.1,85.3,86.1,86.9,84.5,27,33,23,1.260,48.2,52.1,44.4,5.524,5.3,314,15,6.1,0.00174,0.00282,84.0,78.6,16,47,0,86.1,15.85,0.00,0.00
15min,AgWx,beryljct,423,31JUL2018:18:15:00,85.1,13.16,82.2,82.0,82.7,85.2,81.8,35,40,31,1.343,52.3,56.2,49.9,6.686,5.7,286,12,6.9,0.00157,0.00255,83.8,78.7,16,42,0,83.3,15.85,0.00,0.00
15min,AgWx,beryljct,423,31JUL2018:18:30:00,84.5,13.18,82.7,82.3,82.7,83.2,81.8,32,36,29,1.119,49.8,52.3,47.3,11.36,11.6,273,9.8,16.6,0.00275,0.00461,83.7,78.8,16,47,0,83.1,15.85,0.00,0.00
15min,AgWx,beryljct,423,31JUL2018:18:45:00,84.1,13.19,81.9,81.4,82.0,82.4,81.4,30,32,29,1.149,47.8,49.4,46.5,8.92,9.8,279,9.9,15.2,0.00244,0.00411,83.5,79.0,16,64,0,82.7,15.85,0.00,0.00
15min,AgWx,beryljct,423,31JUL2018:19:00:00,83.8,13.21,82.4,83.3,82.2,83.3,81.4,29,31,27,1.063,46.9,48.4,45.3,9.89,10.0,281,7.7,14.9,0.00227,0.00398,83.3,79.1,16,79,0,83.2,15.85,0.00,0.00
15min,AgWx,beryljct,423,31JUL2018:19:15:00,84.1,13.19,84.1,84.9,84.0,84.9,82.6,25,30,22,0.933,44.0,48.0,41.6,9.62,13.1,300,20,18.1,0.00278,0.00506,83.1,79.1,16,83,0,84.9,15.85,0.00,0.00
15min,AgWx,beryljct,423,31JUL2018:19:30:00,84.5,13.19,84.3,83.7,84.5,84.9,83.7,24,26,22,0.998,43.4,45.1,42.0,7.738,10.1,305,11,16.3,0.00218,0.00405,82.9,79.2,16,78,0,85.0,15.85,0.00,0.00
15min,AgWx,beryljct,423,31JUL2018:19:45:00,84.3,13.15,82.9,82.9,83.0,83.8,82.3,27,29,24,1.010,45.2,46.9,43.4,9.23,8.4,280,18,11.6,0.00157,0.00307,82.7,79.3,16,55,0,83.2,15.85,0.00,0.00
15min,AgWx,beryljct,423,31JUL2018:20:00:00,84.0,13.12,82.8,82.1,82.9,83.8,82.1,26,29,23,1.047,44.9,46.7,42.3,8.33,8.7,272,12,14.1,0.00155,0.00208,82.5,79.3,17,32,0,82.7,15.85,0.00,0.00
15min,AgWx,beryljct,423,31JUL2018:20:15:00,83.4,13.11,81.5,81.3,81.7,82.2,81.2,29,30,28,1.069,46.3,47.3,45.4,6.73,6.5,253,5.2,8.3,0.00120,0.00168,82.3,79.4,17,17,0,81.0,15.85,0.00,0.00
15min,AgWx,beryljct,423,31JUL2018:20:30:00,82.8,13.09,81.3,80.4,81.4,81.9,80.4,29,33,28,1.134,46.5,48.7,45.2,4.604,5.5,245,4.6,7.8,0.00106,0.00151,82.1,79.4,17,12,0,80.4,15.85,0.00,0.00
15min,AgWx,beryljct,423,31JUL2018:20:45:00,82.1,13.08,83.5,84.9,83.0,84.9,80.4,25,32,21,0.861,43.3,47.6,40.5,3.836,4.3,244,2.9,5.2,0.00094,0.00139,81.9,79.4,17,3,0,80.8,15.85,0.00,0.00
15min,AgWx,beryljct,423,31JUL2018:21:00:00,81.8,13.08,81.3,77.8,82.2,84.9,77.8,29,42,21,1.349,45.6,52.6,40.0,3.639,2.1,241,13,4.2,0.00051,0.00081,81.8,79.4,17,1,0,80.2,15.85,0.00,0.00
15min,AgWx,beryljct,423,31JUL2018:21:15:00,80.5,13.08,76.2,75.4,76.5,78.3,75.0,40,45,34,1.221,50.3,53.9,47.0,8.11,4.7,149,6.7,8.7,0.00072,0.00104,81.6,79.4,17,0,0,75.3,15.85,0.00,0.00
15min,AgWx,beryljct,423,31JUL2018:21:30:00,79.3,13.06,76.9,76.5,76.7,78.0,75.5,39,41,34,1.236,49.6,51.3,47.5,5.415,5.9,161,7.1,7.6,0.00087,0.00121,81.4,79.4,17,0,0,75.5,15.85,0.00,0.00
15min,AgWx,beryljct,423,31JUL2018:21:45:00,78.6,13.07,76.0,74.1,76.3,77.8,74.1,41,50,35,1.396,50.9,54.3,47.9,7.432,5.7,157,8.1,7.4,0.00080,0.00113,81.1,79.4,17,0,0,75.6,15.86,0.00,0.00
15min,AgWx,beryljct,423,31JUL2018:22:00:00,78.2,13.05,78.1,78.2,77.5,79.6,74.0,36,49,31,1.177,48.5,53.6,46.2,4.187,6.0,180,18,7.8,0.00092,0.00128,81.0,79.4,17,0,0,76.6,15.86,0.00,0.00
15min,AgWx,beryljct,423,31JUL2018:22:15:00,78.4,13.05,78.7,79.7,78.6,80.1,77.3,35,39,31,1.070,48.4,50.6,46.1,7.651,7.5,295,22,10.4,0.00109,0.00149,80.8,79.4,17,0,0,77.7,15.86,0.00,0.00
15min,AgWx,beryljct,423,31JUL2018:22:30:00,79.0,13.04,79.7,78.4,79.9,80.6,78.4,31,34,29,1.104,46.6,48.1,45.6,6.489,7.9,315,7.6,10.9,0.00123,0.00166,80.6,79.4,17,0,0,78.7,15.86,0.00,0.00
15min,AgWx,beryljct,423,31JUL2018:22:45:00,78.8,13.01,76.4,75.1,76.9,78.5,75.1,37,42,33,1.243,48.9,50.6,47.2,4.406,5.3,301,4.3,7.2,0.00083,0.00118,80.3,79.4,17,0,0,75.9,15.85,0.00,0.00
15min,AgWx,beryljct,423,31JUL2018:23:00:00,78.0,13.03,75.8,76.7,75.6,76.7,74.5,39,43,35,1.091,48.9,50.8,46.7,3.223,3.7,309,3.7,4.9,0.00061,0.00090,80.2,79.3,17,0,0,74.2,15.86,0.00,0.00
15min,AgWx,beryljct,423,31JUL2018:23:15:00,77.2,13.02,74.8,74.2,75.1,76.8,73.8,41,45,36,1.291,50.0,51.4,47.2,2.784,2.8,306,6.1,4.2,0.00047,0.00071,80.0,79.3,17,0,0,73.5,15.85,0.00,0.00
15min,AgWx,beryljct,423,31JUL2018:23:30:00,76.4,13.01,74.1,72.8,74.3,75.5,72.5,43,50,38,1.312,50.4,52.8,48.0,5.437,4.1,299,6.4,5.9,0.00060,0.00087,79.8,79.2,17,0,0,72.9,15.86,0.00,0.00
15min,AgWx,beryljct,423,31JUL2018:23:45:00,75.5,13.01,73.5,73.7,73.3,74.0,72.3,44,49,42,1.231,50.3,52.0,49.6,6.971,6.2,282,9.3,8.6,0.00075,0.00104,79.6,79.2,17,0,0,71.9,15.86,0.00,0.00
15min,AgWx,beryljct,423,01AUG2018:00:00:00,74.9,13,73.5,73.0,73.5,73.8,73.0,44,45,43,1.233,50.2,50.6,49.6,4.121,5.6,263,9.1,7.7,0.00073,0.00101,79.4,79.1,17,0,0,71.8,15.86,0.00,0.00
15min,AgWx,beryljct,423,01AUG2018:00:15:00,74.4,12.99,74.6,75.0,74.3,75.4,72.9,41,45,38,1.174,49.2,50.4,48.0,4.165,3.6,275,12,5.5,0.00056,0.00083,79.2,79.1,17,0,0,71.7,15.86,0.00,0.00
15min,AgWx,beryljct,423,01AUG2018:00:30:00,74.0,12.98,74.7,73.6,74.8,75.3,73.6,40,44,38,1.244,48.7,50.4,47.8,4.143,4.1,261,16,5.4,0.00065,0.00094,79.1,79.0,17,0,0,72.4,15.86,0.00,0.00
15min,AgWx,beryljct,423,01AUG2018:00:45:00,73.2,12.96,69.8,69.1,70.4,73.4,68.7,51,56,44,1.259,51.4,52.8,49.8,4.034,3.5,166,41,5.8,0.00043,0.00064,78.8,79.0,17,0,0,68.7,15.86,0.00,0.00
15min,AgWx,bigpiney,439,31JUL2018:01:00:00,52.9,12.8,50.1,49.8,50.3,50.6,49.7,60,62,58,0.740,37.0,37.7,36.1,4.099,2.0,277,14,4.5,-0.00010,-0.00011,56.7,54.9,51,0,0,0.0,.,0.00,0.00
15min,AgWx,bigpiney,439,31JUL2018:01:15:00,52.5,12.8,48.7,48.8,49.1,49.8,48.6,61,62,59,0.711,36.3,37.0,35.7,3.398,3.5,296,11,4.4,0.00001,0.00005,56.7,54.9,51,0,0,0.0,.,0.00,0.00
15min,AgWx,bigpiney,439,31JUL2018:01:30:00,52.0,12.78,49.6,49.3,47.1,49.3,45.5,66,73,57,0.681,36.2,37.5,34.7,3.946,3.6,267,15,5.0,-0.00000,0.00002,56.6,54.9,51,0,0,0.0,.,0.00,0.00
15min,AgWx,bigpiney,439,31JUL2018:01:45:00,51.5,12.77,45.3,44.9,46.7,49.3,44.8,66,74,57,0.745,36.1,37.1,34.8,2.521,2.9,249,14,4.3,-0.00004,-0.00003,56.6,54.9,51,0,0,0.0,.,0.00,0.00
15min,AgWx,bigpiney,439,31JUL2018:02:00:00,50.9,12.77,40.1,42.0,44.5,45.3,42.0,73,76,69,0.676,36.5,37.4,34.4,3.617,2.2,243,62,5.0,-0.00011,-0.00013,56.5,54.9,51,0,0,0.0,.,0.00,0.00
15min,AgWx,bigpiney,439,31JUL2018:02:15:00,50.0,12.76,39.1,38.9,39.5,41.7,38.8,84,87,75,0.682,35.2,35.9,34.4,3.661,3.5,189,25,4.3,-0.00009,-0.00010,56.4,54.9,51,0,0,0.0,.,0.00,0.00
15min,AgWx,bigpiney,439,31JUL2018:02:30:00,48.7,12.75,39.0,38.6,38.6,39.0,38.5,85,86,85,0.678,34.6,34.8,34.4,2.631,3.0,219,8.3,4.4,-0.00010,-0.00012,56.4,54.9,51,0,27,0.0,.,0.00,0.00
15min,AgWx,bigpiney,439,31JUL2018:02:45:00,47.7,12.74,40.1,39.1,39.0,39.4,38.6,86,87,85,0.707,35.1,35.9,34.6,2.236,2.8,236,12,3.8,-0.00011,-0.00013,56.3,54.9,51,0,100,0.0,.,0.00,0.00
15min,AgWx,bigpiney,439,31JUL2018:03:00:00,46.8,12.73,41.6,40.8,39.7,41.0,38.5,84,88,79,0.713,35.2,36.3,34.2,3.529,3.1,245,22,4.6,-0.00010,-0.00011,56.2,54.9,51,0,100,0.0,.,0.00,0.00
15min,AgWx,bigpiney,439,31JUL2018:03:15:00,46.3,12.71,42.4,41.6,41.1,41.6,40.6,77,82,73,0.655,34.3,35.8,33.4,2.806,3.8,272,38,7.9,-0.00005,-0.00004,56.2,54.9,51,0,2,0.0,.,0.00,0.00
15min,AgWx,bigpiney,439,31JUL2018:03:30:00,46.0,12.71,46.3,44.6,42.4,44.6,41.6,71,74,62,0.617,33.5,34.0,32.3,2.236,1.3,256,36,3.6,-0.00016,-0.00022,56.1,54.9,51,0,0,0.0,.,0.00,0.00
15min,AgWx,bigpiney,439,31JUL2018:03:45:00,45.7,12.68,41.9,41.8,43.5,45.5,41.3,68,73,61,0.640,33.4,34.8,32.2,2.236,2.3,241,37,3.6,-0.00008,-0.00009,56.0,54.9,51,0,0,0.0,.,0.00,0.00
15min,AgWx,bigpiney,439,31JUL2018:04:00:00,45.4,12.68,39.8,43.5,44.0,47.4,41.5,65,72,56,0.616,33.0,33.7,32.2,1.556,1.6,234,30,3.2,-0.00013,-0.00016,55.9,54.9,51,0,0,0.0,.,0.00,0.00
15min,AgWx,bigpiney,439,31JUL2018:04:15:00,45.1,12.67,45.1,45.2,44.1,45.7,41.1,62,72,57,0.617,32.0,33.0,31.0,2.368,2.9,323,27,3.7,-0.00003,-0.00001,55.8,54.8,51,0,0,0.0,.,0.00,0.00
15min,AgWx,bigpiney,439,31JUL2018:04:30:00,44.9,12.66,40.4,40.2,40.6,45.2,38.3,71,76,60,0.618,32.0,33.1,31.4,3.836,3.1,221,15,4.7,-0.00005,-0.00004,55.8,54.8,51,0,0,0.0,.,0.00,0.00
15min,AgWx,bigpiney,439,31JUL2018:04:45:00,44.7,12.65,39.3,39.6,40.5,40.9,39.6,72,73,71,0.606,32.2,32.4,31.8,2.916,2.9,218,4.6,3.9,-0.00006,-0.00006,55.7,54.8,51,0,0,0.0,.,0.00,0.00
15min,AgWx,bigpiney,439,31JUL2018:05:00:00,44.3,12.63,39.4,38.8,39.1,39.6,38.6,75,79,73,0.627,31.8,32.9,31.5,0,2.1,223,30,3.7,-0.00011,-0.00013,55.6,54.8,51,0,0,0.0,.,0.00,0.00
15min,AgWx,bigpiney,439,31JUL2018:05:15:00,43.8,12.61,38.0,37.3,38.2,39.1,37.3,80,84,76,0.634,32.6,33.3,31.7,2.389,1.5,149,20,3.1,-0.00015,-0.00020,55.5,54.8,51,0,0,0.0,.,0.00,0.00
15min,AgWx,bigpiney,439,31JUL2018:05:30:00,43.2,12.6,35.7,35.9,36.8,37.4,35.9,84,85,83,0.595,32.5,33.1,31.3,2.105,2.1,201,19,3.6,-0.00013,-0.00016,55.4,54.7,51,0,0,0.0,.,0.00,0.00
15min,AgWx,bigpiney,439,31JUL2018:05:45:00,42.6,12.6,39.4,38.8,36.9,38.8,35.3,87,90,83,0.671,33.3,34.9,31.2,2.696,2.1,247,9.2,3.4,-0.00013,-0.00017,55.3,54.7,51,0,0,0.0,.,0.00,0.00
15min,AgWx,bigpiney,439,31JUL2018:06:00:00,42.2,12.59,38.9,39.8,40.5,43.1,38.8,76,84,66,0.631,33.6,34.5,32.1,1.754,2.6,237,12,3.4,-0.00009,-0.00011,55.2,54.7,51,1,0,0.0,.,0.00,0.00
15min,AgWx,bigpiney,439,31JUL2018:06:15:00,41.9,12.59,39.1,39.9,39.0,41.2,37.9,78,83,71,0.621,32.7,34.1,31.3,0.438,1.6,231,5.3,2.3,-0.00013,-0.00017,55.1,54.6,51,4,0,0.0,.,0.00,0.00
15min,AgWx,bigpiney,439,31JUL2018:06:30:00,41.5,12.59,35.8,35.8,37.0,39.9,35.8,80,83,73,0.592,31.4,33.0,30.4,2.477,2.4,218,6.6,3.5,-0.00028,-0.00023,55.0,54.6,51,18,0,0.0,.,0.00,0.00
15min,AgWx,bigpiney,439,31JUL2018:06:45:00,41.3,12.62,37.7,37.2,35.9,37.2,35.4,85,86,82,0.618,31.8,32.3,31.2,3.069,2.4,225,3.4,3.1,-0.00016,-0.00012,55.0,54.6,51,48,0,0.0,.,0.00,0.00
15min,AgWx,bigpiney,439,31JUL2018:07:00:00,41.4,12.63,39.5,39.1,38.2,39.1,37.2,81,82,80,0.646,32.8,33.4,32.3,0,1.0,222,5.7,3.2,-0.00007,-0.00004,54.9,54.6,51,77,0,0.0,.,0.00,0.00
15min,AgWx,bigpiney,439,31JUL2018:07:15:00,42.2,12.66,44.1,43.4,40.7,43.4,39.1,82,84,80,0.779,35.6,38.3,33.4,0,0.8,229,8.8,2.0,0.00011,0.00014,54.8,54.6,51,114,0,0.0,.,0.00,0.00
15min,AgWx,bigpiney,439,31JUL2018:07:30:00,43.7,12.69,47.1,46.8,45.6,46.8,43.5,68,81,61,0.717,35.6,38.1,33.4,1.885,0.6,210,4.9,2.7,0.00034,0.00040,54.7,54.5,51,154,0,0.0,.,0.00,0.00
15min,AgWx,bigpiney,439,31JUL2018:07:45:00,45.9,12.73,49.4,49.0,47.6,49.1,46.8,68,72,59,0.699,37.4,38.6,35.4,1.14,1.5,209,7.3,3.5,0.00067,0.00079,54.6,54.5,51,202,0,0.0,.,0.00,0.00
15min,AgWx,bigpiney,439,31JUL2018:08:00:00,48.3,12.77,51.8,51.1,50.3,51.2,49.0,57,60,53,0.678,35.5,36.9,34.3,0.197,0.1,161,40,1.2,0.00090,0.00097,54.5,54.4,52,248,0,0.0,.,0.00,0.00
15min,AgWx,bigpiney,439,31JUL2018:08:15:00,51.0,12.86,53.5,53.1,52.1,53.1,51.1,57,60,54,0.777,37.3,39.2,34.9,0,0.1,71,15,0.8,0.00122,0.00131,54.4,54.4,51,296,0,0.0,.,0.00,0.00
15min,AgWx,bigpiney,439,31JUL2018:08:30:00,53.5,13.14,55.0,55.0,54.0,55.0,53.1,56,61,53,0.905,38.8,42.0,36.7,0.767,0.1,158,10,1.0,0.00155,0.00167,54.3,54.4,51,343,0,0.0,.,0.00,0.00
15min,AgWx,bigpiney,439,31JUL2018:08:45:00,55.5,13.42,56.9,56.3,55.5,56.4,54.7,58,62,52,0.911,41.1,42.6,37.6,1.096,1.1,179,27,2.3,0.00196,0.00218,54.2,54.3,52,394,0,0.0,.,0.00,0.00